Regional Weather Roundup
Issued by NWS

Home | Current Version | Previous Version | Graphics & Text | Print | Product List | Glossary On
Versions: 1 2 3 4 5 6 7 8 9 10 11 12 13 14 15 16 17 18 19 20 21 22 23 24 25 26 27 28 29 30 31 32 33 34 35 36 37 38 39 40 41 42 43 44 45 46 47 48 49 50
511
ASUS44 KLIX 241001
RWRLA
LOUISIANA WEATHER ROUNDUP
NATIONAL WEATHER SERVICE NEW ORLEANS LA
500 AM CDT THU APR 24 2014

NOTE: "FAIR" INDICATES FEW OR NO CLOUDS BELOW 12,000 FEET WITH NO
      SIGNIFICANT WEATHER AND/OR OBSTRUCTIONS TO VISIBILITY.
      SKY/WX - SKY CONDITION AND SIGNIFICANT WEATHER.
      TMP - AIR TEMPERATURE.    DP   - DEWPOINT TEMPERATURE.
      RH  - RELATIVE HUMIDITY.  PRES - PRESSURE.
      HX  - HEAT INDEX.         WCI  - WIND CHILL INDEX.

*  THESE STATIONS ARE NOT NWS OR FAA STATIONS AND ARE NOT UNDER
   NWS QUALITY CONTROL.

LAZ040-048-061>063-065-066-069-241100-
SOUTHEAST LOUISIANA

CITY           SKY/WX    TMP DP  RH WIND       PRES   REMARKS
N.O. AUDUBON     N/A     67  64  90 MISG        N/A
N.O. INTL ARPT CLEAR     65  63  93 SE3       29.91S
N.O. LAKEFRONT CLEAR     67  65  93 S3        29.92R
N.O. DOWNTOWN* FAIR      70  63  78 CALM      29.92S
SLIDELL        CLOUDY    57  55  93 CALM      29.91R FOG
BATON ROUGE    CLEAR     62  59  90 CALM      29.89F
BOOTHVILLE     PTCLDY    69  66  90 SW7       29.92S
BELLE CHASSE   FOG       58  56  93 CALM      29.91S VSB 1/4
BOGALUSA*        N/A     58  55  89 CALM      29.92S FOG
GALLIANO*      NOT AVBL
NEW ROADS*     NOT AVBL
GONZALES*      FAIR      59  59 100 CALM      29.89F FOG
HAMMOND*       NOT AVBL
HOUMA*           N/A     61  59  94 CALM      29.90F FOG
PORT FOURCHON* CLOUDY    70  66  88 S5        29.93S

$$

LAZ041-044-053-054-241100-
SOUTHWEST LOUISIANA

CITY           SKY/WX    TMP DP  RH WIND       PRES   REMARKS
LAKE CHARLES   FOG       62  62 100 SE3       29.86S VSB 1/4
LAFAYETTE      FOG       61  60  97 CALM      29.88S VSB 1/4
PATTERSON      CLOUDY    61  61 100 CALM      29.92S VSB 1/4
SALT POINT       N/A     68  66  93 CALM      29.88F
NEW IBERIA       N/A     61  60  97 S3        29.89S VSB 1/4
CHENAULT AIRPK NOT AVBL

$$

LAZ027-028-241100-
CENTRAL LOUISIANA

CITY           SKY/WX    TMP DP  RH WIND       PRES   REMARKS
FORT POLK      FOG       65  65 100 S6        29.86S VSB 1/2
ALEXANDRIA INT CLOUDY    64  61  90 SE5       29.85F FOG
ALEXANDRIA     CLOUDY    61  58  90 CALM      29.87F

$$

LAZ001-002-241100-
NORTHWEST LOUISIANA

CITY           SKY/WX    TMP DP  RH WIND       PRES   REMARKS
SHREVEPORT     CLOUDY    62  60  93 CALM      29.85S
BARKSDALE AFB  MOCLDY    61  59  93 E5        29.86S
DTN SHREVEPORT MOCLDY    63  59  87 E5        29.86S

$$

LAZ014-016-241100-
NORTHEAST LOUISIANA

CITY           SKY/WX    TMP DP  RH WIND       PRES   REMARKS
MONROE         MOCLDY    56  49  77 CALM      29.90R
TALLULAH       MOCLDY    58  53  84 SE5       29.89S

$$




USA.gov is the U.S. government's official web portal to all federal, state and local government web resources and services.